{"data":{"norad_id":65490,"intl_designator":"2025-197C","name":"2025-197C","alt_names":[],"object_type":"PAYLOAD","status":"ACTIVE","operator":null,"country":"PRC","launch_date":"2025-09-05","launch_site_code":"JSC","launch_vehicle":null,"mission":null,"orbit_class":"UNKNOWN","rcs_meters":null,"size_class":null,"mass_kg":null,"dimensions":null,"purposes":[],"wikipedia_slug":null,"has_3d_model":false,"image_url":null,"decayed_at":null,"tle_current":{"epoch":"2026-05-25T01:27:44.413344Z","epoch_age_seconds":65708,"freshness":"FRESH","line1":"1 65490U 25197C   26145.06093071  .00004010  00000+0  16646-3 0  9992","line2":"2 65490  97.4109 332.3286 0016162  91.9926 268.3162 15.24301809 39794","mean_motion":15.24301809,"eccentricity":0.0016162,"inclination_deg":97.4109,"raan_deg":332.3286,"arg_perigee_deg":91.9926,"mean_anomaly_deg":268.3162,"bstar":0.00016646,"rev_number":3979,"period_min":94.469480485934,"perigee_km":481.77782507293,"apogee_km":503.98770936849,"semimajor_km":6871.0197672207,"source":"CELESTRAK","updated_at":"2026-05-25T13:38:05.452033Z"}}}